Regional Weather Roundup
Issued by NWS Newport/Morehead, NC

Current Version | Previous Version | Graphics & Text | Print | Product List | Glossary Off
Versions: 1 2 3 4 5 6 7 8 9 10 11 12 13 14 15 16 17 18 19 20 21 22 23 24 25 26 27 28 29 30 31 32 33 34 35 36 37 38 39 40 41 42 43 44 45 46 47 48 49 50
000 ASUS42 KMHX 180113 RWRMHX WEATHER ROUNDUP FOR EASTERN NORTH CAROLINA NATIONAL WEATHER SERVICE NEWPORT/MOREHEAD CITY NC 800 PM EST SAT FEB 17 2018 NOTE: "FAIR" INDICATES FEW OR NO CLOUDS BELOW 12,000 FEET WITH NO SIGNIFICANT WEATHER AND/OR OBSTRUCTIONS TO VISIBILITY NCZ015>017-031-032-045>047-102-103-180200- NORTH COAST CITY SKY/WX TMP DP RH WIND PRES REMARKS EDENTON CLOUDY 46 45 96 NW3 30.11F FOG ELIZABETH CITY LGT RAIN 45 45 100 NW8 30.09F FOG KITTY HAWK CLOUDY N/A N/A N/A NW3 30.07F HAZE MANTEO CLOUDY 48 47 97 N13G20 30.09S $$ NCZ045>047-081-094-103-104-180200- CENTRAL COAST CITY SKY/WX TMP DP RH WIND PRES REMARKS FRISCO CLOUDY 63 62 97 SW6 30.06F $$ NCZ095-097-098-100-101-180200- SOUTHERN COAST CITY SKY/WX TMP DP RH WIND PRES REMARKS BEAUFORT FAIR 50 47 89 CALM 30.06F CEDAR ISLAND NOT AVBL JACKSONVILLE CLOUDY 53 47 79 NE3 30.08F PINEY ISLAND NOT AVBL WILMINGTON CLOUDY 53 50 89 CALM 30.09S $$ NCZ011>013-027>030-043-044-078>080-089-090>093-098-180200- COASTAL PLAIN CITY SKY/WX TMP DP RH WIND PRES REMARKS AHOSKIE DRIZZLE 42 42 100 SE3 30.09F CLINTON CLOUDY 51 47 88 CALM 30.09F ELIZABETHTOWN NOT AVBL GOLDSBORO CLOUDY 48 44 85 E6 30.07F GREENVILLE CLOUDY 45 45 100 CALM 30.10F FOG HAVELOCK NOT AVBL KENANSVILLE CLOUDY 48 46 93 CALM 30.09F KINSTON CLOUDY 48 46 93 CALM 30.10F NEW BERN CLOUDY 50 44 80 N5 30.11R RICHLANDS CLOUDY 50 46 86 N3 30.10R ROCKY MOUNT CLOUDY 44 44 100 CALM 30.09F FOG WASHINGTON MIX PCPN 46 45 97 CALM 30.11F WHITEVILLE CLOUDY 54 52 93 S5 30.07F FOG $$ AMZ130-135-150-152-154-156-158-170-250-252-270-ANZ085-086-088-633-658-670-180200- MARINE OBSERVATIONS STATION/POSITION TIME TEMP WIND PRES WAVE SWELL AIR SEA DIR/SP/G HT/PER HT/PER (UTC) (F) (DEG/KT/KT) (MB) (FT/S) (FT/S) CHESAPEAKE LIGHT NOT AVBL 64 E VA BEACH 2350 54 50 160/ 12/ 14 1017.7 4/ 6 3/ 7 DUCK 0048 47 44 310/ 10/ 12 1018.0 2 E DUCK 0100 44 N/A 4/ 6 OREGON INLET 0042 52 48 290/ 8/ 13 1018.1 13E OREGON INLT 0048 45 N/A 5/ 8 5/ 8 HATTERAS CG 0048 62 58 180/ 5/ 6 1017.7 DIAMOND BUOY 0050 71 69 160/ 21/ 27 1017.8 5/11 3/11 CAPE LOOKOUT 0000 360/ 5/ 6 1019.3 BEAUFORT LAB 0048 50 54 110/ 5/ 6 1018.1 30 SE NEW RVR IN 0008 57 68 20/ 10/ 14 1019.4 30 SE NEW RVR IN 0100 68 N/A 5/10 2/11 27 SE WRIGHTSVLE 0008 59 67 360/ 12/ 19 1019.3 5 SE WRIGHTSVLE 0008 54 54 10/ 4/ 8 1019.2 225 S CAPE HAT 2350 73 73 230/ 12/ 16 1021.2 6/ 8 5/ 8 41 SE CHARLESTON 0050 67 210/ 14/ 17 1019.6 5/ 7 3/ 7 $$

USA.gov is the U.S. government's official web portal to all federal, state and local government web resources and services.